This is the latest recevied weather packets stored in our database for station/object KY4LEX. If no packets are shown the sender has not sent any weather packets the latest 10 day(s).
| Time | Temp. | Humidity | Pressure | Rain* | Wind** | Luminosity | Snow |
|---|---|---|---|---|---|---|---|
| 1778026681 | 16.67° C | 86% | 1013.2 hPa | 0 mm | - | 2 W/m² | - |
| 1778026378 | 16.67° C | 85% | 1012.9 hPa | 0 mm | - | 5 W/m² | - |
| 1778026075 | 17.22° C | 83% | 1013.1 hPa | 0 mm | - | 8 W/m² | - |
| 1778025772 | 17.22° C | 83% | 1013.3 hPa | 0 mm | - | 11 W/m² | - |
| 1778025469 | 17.78° C | 82% | 1013 hPa | 0 mm | - | 16 W/m² | - |
| 1778025167 | 17.78° C | 80% | 1012.9 hPa | 0 mm | - | 21 W/m² | - |
| 1778024863 | 17.78° C | 77% | 1013 hPa | 1.27 mm | - | 20 W/m² | - |
| 1778024561 | 18.33° C | 76% | 1013.1 hPa | 1.27 mm | - | 21 W/m² | - |
| 1778024257 | 18.89° C | 72% | 1013.1 hPa | 0 mm | - | 23 W/m² | - |
| 1778023956 | 19.44° C | 70% | 1013.1 hPa | 0 mm | - | 21 W/m² | - |
| 1778023652 | 19.44° C | 65% | 1013.2 hPa | 0 mm | - | 26 W/m² | - |
| 1778023350 | 19.44° C | 65% | 1013.3 hPa | 0 mm | - | 30 W/m² | - |
| 1778023046 | 19.44° C | 67% | 1013.2 hPa | 0 mm | - | 12 W/m² | - |
| 1778022746 | 19.44° C | 68% | 1013.4 hPa | 0 mm | - | 22 W/m² | - |
| 1778022443 | 19.44° C | 67% | 1013.2 hPa | 0 mm | - | 28 W/m² | - |
| 1778022139 | 19.44° C | 68% | 1013.3 hPa | 0 mm | - | 35 W/m² | - |
| 1778021836 | 19.44° C | 68% | 1013.5 hPa | 0 mm | - | 44 W/m² | - |
| 1778021533 | 19.44° C | 67% | 1013.7 hPa | 0 mm | - | 30 W/m² | - |
| 1778021228 | 19.44° C | 67% | 1013.5 hPa | 0 mm | - | 18 W/m² | - |
| 1778020927 | 19.44° C | 66% | 1013.5 hPa | 0 mm | - | 28 W/m² | - |
| 1778020624 | 19.44° C | 67% | 1013.6 hPa | 0 mm | - | 25 W/m² | - |
| 1778020320 | 19.44° C | 71% | 1013.6 hPa | 0 mm | - | 31 W/m² | - |
| 1778020016 | 19.44° C | 73% | 1013.8 hPa | 0 mm | - | 57 W/m² | - |
| 1778019712 | 19.44° C | 71% | 1013.8 hPa | 0 mm | - | 86 W/m² | - |
| 1778019410 | 19.44° C | 69% | 1014 hPa | 0 mm | - | 59 W/m² | - |
* Rain latest hour (hover to see other rain measurements)
** Current wind speed in m/s (hover to see current wind gust speed)